Location: Roc des P�zouls
(43.9667°N, 3.5500°E)
Time: 07:35:17
(UTC+00:00)

PAYLOAD A - Pass Details

Date: 14 November 2019
Orbit: 693 x 831 km, 98.3° (Epoch: 08 December)

Event Time Altitude Azimuth Distance (km) Brightness Sun altitude
Rises 04:25:42 0° 9° (N) 3,308 7.4 -24.0°
Reaches altitude 10° 04:28:02 10° 6° (N) 2,391 6.6 -23.5°
Maximum altitude 04:33:15 61° 288° (WNW) 932 4.1 -22.6°
Enters shadow 04:35:54 29° 219° (SW) 1,462 5.1 -22.1°
